Portada
METAR-TAF:

METAR-TAF

Aeroports :

Ambato, Equador

latitud: 01-12-43S, longitud: 078-34-28W, altitud: 2591 m

Observació

L'informe es va fer fa 1 hora i 41 minuts, a les 21:00 UTC
Vent 4 kt del Sud/Sud-Est
Temperatura 16°C
Humitat 63%
Pressió 1026 hPa
Visibilitat 10 km o més
Cel ennuvolat a una alçada de 2000 ft

METAR: SEAM 012100Z 16004KT 9999 BKN020 16/09 Q1026

Hora: 17:41 (22:41 UTC)


TAF: manca

Observacions i pronòstics meteorològics de més de 4000 aeroports (METAR i TAF).

Les estacions disponibles són els punts grocs i vermells al mapa.

Posi el ratolí al punt desitjat per veure el nom de l'estació.

Feu clic per veure les observacions i els pronòstics meteorològics.

Per canviar el mapa: feu clic els botons verds amb una creu de color negre per apropar; al botó verd amb un guió per allunyar la imatge; o en les fletxes verdes per a mapes adjacents.


METAR-TAF: